GFSSE_sfc_rhum_000.txt.gz
RH
57 65 88 87 86 87 86 86 84 84 85 84 86 85 84 84 83 82 81 80 78 72 69 70 73 72 69 72 78 79 79 80 74 76 76 72 65 71 73 81 77 67 77
54 62 90 88 88 87 86 85 84 86 86 85 84 84 84 84 83 80 79 79 78 73 72 72 75 76 76 76 83 82 84 84 83 76 75 72 68 66 69 77 80 75 77
54 61 68 89 88 87 86 86 88 88 87 84 83 83 83 82 81 81 80 80 77 74 73 72 74 78 79 82 82 83 83 85 85 84 82 68 63 70 66 73 81 79 77
49 56 70 92 88 88 88 86 87 86 86 86 84 84 83 82 81 80 79 81 77 74 74 74 72 80 83 83 83 82 82 83 85 85 74 52 58 74 70 75 78 79 76
58 70 87 95 90 89 90 89 89 93 92 90 88 84 82 80 78 78 80 80 76 74 74 75 75 76 79 83 84 84 84 86 86 79 64 61 84 81 83 74 77 80 78
62 77 94 96 95 95 94 94 94 94 94 92 89 84 82 81 79 80 80 76 73 72 73 75 78 83 86 88 87 85 86 87 89 68 54 64 85 76 76 73 84 82 80
55 70 83 96 95 93 92 92 94 94 92 90 88 86 83 81 79 79 78 76 74 73 72 72 73 76 79 82 83 87 89 89 80 64 54 91 89 81 87 72 79 81 82
42 63 68 92 94 94 92 93 94 92 92 91 88 84 84 82 80 78 77 76 76 75 75 73 72 73 75 76 78 84 87 87 67 58 59 82 88 74 78 72 80 80 78
33 38 51 66 85 90 92 93 93 92 92 90 89 87 86 86 82 77 75 74 72 72 72 71 72 71 70 74 77 83 85 85 85 67 56 78 79 71 68 73 79 78 77
35 34 44 56 55 67 81 91 92 92 90 89 87 86 88 86 83 78 79 74 72 71 71 70 70 70 69 70 75 78 80 82 75 64 73 86 77 71 70 70 71 78 78
31 43 46 43 51 60 64 76 88 89 89 88 85 85 84 74 74 74 76 79 75 75 74 73 71 69 74 77 79 81 79 65 59 54 75 84 74 71 71 72 75 76 79
40 39 48 54 56 50 33 70 68 60 70 72 66 71 68 65 62 57 70 82 83 84 83 81 80 80 80 68 70 84 79 59 57 52 80 78 68 67 70 74 75 76 76
34 37 48 62 59 53 52 54 53 56 60 67 65 65 64 64 70 74 85 87 92 90 83 85 79 82 65 68 61 62 58 56 58 52 72 72 63 61 64 67 71 73 74
33 35 49 56 62 57 53 51 55 54 58 60 64 62 71 72 73 69 67 61 62 62 61 65 66 65 65 57 49 52 53 57 49 46 77 72 63 57 59 60 62 64 68
32 36 45 55 61 63 58 63 63 61 64 62 60 61 67 67 72 68 65 62 61 58 59 62 60 58 59 51 48 44 46 49 48 50 64 68 65 57 53 54 56 60 63
30 37 50 51 58 52 53 58 64 63 61 64 56 56 55 65 68 67 65 63 61 59 60 58 58 62 62 55 50 47 45 47 46 50 51 69 68 66 62 57 57 59 60
26 29 60 85 67 52 52 56 57 50 44 51 51 53 49 54 62 65 67 66 64 63 60 62 64 61 64 56 53 52 51 52 51 49 53 54 62 73 76 71 65 63 63
30 35 81 56 55 50 57 50 47 52 54 51 55 54 53 52 54 63 66 68 67 70 66 66 65 63 62 62 62 59 49 48 48 48 48 50 51 43 74 79 76 69 62
25 30 45 55 52 46 51 47 49 52 53 50 49 52 54 51 58 64 64 69 70 68 68 67 61 66 66 65 57 54 58 53 48 37 42 48 52 48 52 71 78 74 71
29 30 35 52 45 42 46 50 45 46 48 47 50 50 51 50 54 60 61 68 70 66 66 69 74 66 67 64 46 46 57 52 51 56 47 42 43 43 47 47 71 73 77
37 32 40 53 52 42 46 48 50 54 48 50 45 48 46 50 52 59 60 60 61 62 66 65 64 65 61 68 63 60 57 58 65 58 47 41 42 41 41 46 61 57 61
43 46 50 46 42 40 40 48 50 50 48 47 48 51 50 54 50 43 57 56 59 63 65 69 73 66 60 59 64 59 59 51 57 53 50 52 46 40 39 40 48 47 48
46 46 37 38 41 49 46 39 44 46 48 48 48 49 48 48 46 49 54 58 62 63 64 66 67 67 68 61 64 68 64 63 56 53 52 49 67 67 81 66 43 42 53
48 48 41 40 38 41 45 48 48 48 52 53 58 54 55 51 52 46 50 59 63 66 66 69 52 72 72 69 70 60 70 75 89 81 68 62 58 69 83 77 71 56 48
48 52 47 41 38 40 44 48 52 60 62 61 63 59 55 57 53 50 52 59 66 64 67 71 69 74 77 82 79 77 78 71 74 89 81 79 70 73 80 92 86 87 69
48 50 47 41 36 41 45 51 56 56 57 56 56 58 54 54 54 55 53 62 66 68 66 68 77 77 86 86 81 79 84 78 74 75 78 81 85 80 79 85 96 95 90

GFSSE_sfc_rhum_003.txt.gz
RH
84 90 91 89 89 89 88 88 88 89 88 87 86 86 86 86 86 85 85 84 81 76 72 74 78 78 79 77 80 84 85 83 80 74 75 75 72 74 76 81 79 68 78
82 87 91 90 89 88 89 90 90 89 87 86 87 87 87 87 86 84 83 82 80 72 71 71 76 78 80 82 84 88 87 86 84 83 78 72 68 69 70 82 79 71 79
87 82 82 91 90 90 91 91 90 88 87 86 86 87 88 85 83 81 82 84 78 74 74 72 76 80 81 82 84 86 86 86 86 84 81 75 68 70 69 74 80 82 80
76 84 86 92 91 91 92 91 90 88 88 88 88 87 85 82 80 79 82 84 77 75 74 73 73 75 78 82 84 87 88 88 88 86 81 78 69 75 67 75 74 75 76
92 93 89 92 92 92 93 94 95 94 93 91 90 83 80 80 79 81 81 80 73 72 72 74 77 81 86 89 89 88 87 89 88 83 81 90 87 69 72 76 78 79 80
98 97 98 97 96 94 94 95 95 94 93 92 88 80 82 79 80 79 78 74 71 70 70 71 73 77 84 88 88 88 90 89 86 86 94 82 87 72 77 80 82 79 82
98 98 97 98 97 96 95 95 95 94 94 93 91 88 82 79 79 79 78 76 74 73 72 72 72 74 77 82 81 85 86 86 83 84 91 94 82 66 77 80 82 79 77
96 98 95 96 96 96 96 96 95 94 94 93 92 88 84 82 82 79 78 76 74 73 72 72 72 72 73 76 81 84 84 84 76 89 87 94 81 68 59 74 80 79 79
84 95 96 95 93 94 95 95 95 95 94 92 91 90 89 87 85 82 78 74 72 72 71 71 71 73 72 74 82 84 84 84 90 84 74 94 82 72 71 76 81 79 80
62 73 86 91 90 96 96 94 94 93 92 89 88 89 88 86 81 81 80 78 75 72 70 70 72 72 72 78 80 83 86 86 77 81 87 95 82 71 69 72 76 82 83
49 59 70 74 79 88 94 89 92 90 90 88 87 87 90 92 84 80 83 80 78 79 79 79 79 78 79 78 79 82 83 91 78 77 96 86 75 68 72 74 78 81 81
49 57 59 62 77 75 55 88 94 85 92 92 89 90 91 93 91 75 81 82 81 82 84 84 84 82 81 86 76 76 91 85 73 70 91 81 72 64 66 75 79 80 81
43 54 64 61 59 61 67 85 88 88 94 90 83 78 78 73 82 82 93 93 96 91 96 91 91 90 86 87 72 62 60 59 67 60 75 81 70 62 59 65 74 78 80
45 56 63 67 61 63 59 64 67 72 77 84 80 75 82 85 76 74 73 76 85 92 96 94 89 79 83 73 65 53 49 54 62 57 77 82 76 62 58 62 66 68 72
45 58 62 67 70 64 62 73 69 73 70 71 76 72 73 74 73 73 73 68 67 67 67 69 69 65 67 61 55 49 44 46 49 54 68 80 74 67 55 53 57 60 64
40 54 60 73 72 63 62 67 70 69 68 70 70 66 64 67 75 74 71 70 67 68 68 64 62 64 66 66 58 51 45 44 46 51 59 77 77 71 65 55 55 57 60
43 69 80 88 85 67 58 58 68 49 51 58 60 56 58 60 62 66 72 75 74 74 71 68 68 73 74 71 69 58 52 49 48 48 53 67 70 76 73 71 66 62 62
66 71 80 72 82 76 61 53 57 59 56 61 62 67 61 62 66 69 67 68 76 77 74 71 72 73 73 76 69 65 62 54 49 52 47 58 63 55 71 76 77 74 73
40 71 76 78 80 75 54 53 58 51 53 56 61 60 52 59 60 67 69 73 75 77 78 77 75 82 81 76 62 57 62 66 59 42 47 47 59 56 56 70 77 79 79
52 62 71 79 82 55 51 46 62 54 56 56 53 49 46 58 58 61 61 63 66 67 71 72 73 70 74 68 52 53 72 71 75 74 65 52 52 51 51 54 70 73 83
54 52 60 67 54 51 63 64 63 54 53 53 50 52 50 48 46 52 58 66 68 66 68 68 76 72 68 73 72 56 68 68 65 67 77 74 62 58 53 54 59 68 72
48 46 55 57 57 54 62 62 57 54 52 51 50 49 53 56 54 48 61 66 64 66 64 65 66 76 73 73 76 73 76 63 65 61 67 71 79 80 75 61 53 60 62
50 47 44 46 46 54 53 46 47 50 53 56 61 60 59 64 57 56 60 66 66 71 69 70 74 68 77 76 74 85 94 93 83 76 66 60 75 80 83 85 80 66 55
59 50 46 43 40 41 49 53 56 64 70 71 70 66 67 60 57 56 57 62 71 73 73 77 64 78 84 88 87 71 86 86 95 92 73 64 63 68 89 92 89 84 81
54 54 50 44 42 43 44 48 63 62 66 67 68 65 60 60 58 57 60 65 72 77 73 78 83 85 90 91 90 90 88 84 79 79 74 82 68 72 87 91 88 94 89
53 50 44 40 41 44 45 46 56 54 57 67 64 64 62 62 64 57 57 65 69 72 75 79 86 85 88 83 79 82 85 86 93 91 88 78 83 81 73 80 89 90 93

GFSSE_sfc_rhum_006.txt.gz
RH
96 93 91 90 90 90 89 90 91 90 87 85 86 87 86 84 84 85 84 84 80 74 72 76 77 78 82 83 83 82 84 87 85 77 76 74 65 63 71 80 77 70 79
93 89 92 90 90 90 89 90 90 89 87 86 88 88 88 85 82 79 80 80 77 74 72 74 76 78 79 79 81 82 84 86 85 82 77 67 63 63 67 78 80 73 79
91 87 84 92 92 91 91 90 89 88 87 85 86 86 84 81 78 79 80 81 77 73 70 71 72 73 77 80 82 83 84 86 85 83 79 79 76 65 64 75 78 78 77
87 88 85 94 93 93 93 92 89 86 87 88 86 84 82 79 79 79 79 81 74 70 70 72 74 78 81 84 84 83 83 85 86 83 80 83 73 73 63 75 74 72 75
89 88 89 94 94 93 94 94 93 93 92 91 86 81 80 78 78 76 77 76 70 69 68 68 71 77 83 86 86 86 85 85 86 82 87 88 82 68 71 73 76 77 79
94 96 95 96 95 94 95 94 94 94 94 89 85 82 78 78 76 76 76 72 69 68 67 68 69 72 78 82 82 80 82 83 85 92 91 84 84 71 68 76 81 80 80
87 92 97 97 96 95 94 93 94 94 94 92 90 86 79 78 77 77 76 73 71 69 69 69 69 70 73 76 77 80 84 84 84 92 92 92 84 66 68 74 75 79 80
86 89 92 97 97 96 96 95 95 94 93 93 91 86 80 80 80 77 75 74 71 70 68 68 68 70 71 72 75 83 84 86 82 91 88 96 88 72 65 72 78 80 79
97 95 98 97 96 96 95 94 95 95 93 92 92 89 87 85 85 80 76 73 70 68 67 67 69 71 70 72 76 78 81 84 92 80 75 95 83 77 68 66 74 81 82
97 97 98 98 97 97 96 95 94 91 90 90 89 87 86 84 82 82 80 78 75 72 70 72 74 75 73 76 78 81 82 84 86 79 85 95 85 80 73 72 77 82 84
84 92 95 95 95 96 96 91 92 89 87 86 86 86 90 91 85 81 85 79 79 78 77 78 80 80 77 78 80 81 80 92 87 79 95 88 80 70 69 72 77 82 82
77 81 79 85 90 93 70 94 95 88 92 91 91 92 94 95 95 80 85 86 83 82 82 84 85 86 84 88 87 74 73 78 77 68 90 87 80 70 62 65 76 80 82
61 66 74 81 85 82 76 92 96 97 97 96 93 94 94 91 91 95 95 94 95 91 96 93 94 95 93 91 88 77 58 56 67 66 62 82 79 67 62 60 62 72 79
59 62 66 74 77 75 83 92 91 91 95 97 93 85 87 90 82 82 86 89 89 89 93 95 97 92 88 86 84 75 57 52 57 61 64 78 81 71 63 58 58 65 71
58 61 69 71 71 69 68 77 79 80 84 88 85 82 81 81 76 77 76 74 74 73 77 76 82 73 70 70 68 63 56 50 49 55 64 74 83 77 64 54 52 55 59
56 71 80 81 78 60 67 72 75 84 84 80 84 78 72 76 80 79 75 75 76 81 80 75 73 72 74 75 73 70 61 52 46 49 57 66 83 82 74 61 55 54 55
58 72 79 81 78 73 63 70 75 72 66 73 69 69 66 70 71 75 75 74 78 80 77 78 75 78 79 73 76 74 72 62 58 51 52 56 69 84 79 72 69 66 60
71 71 82 70 81 78 65 65 58 61 68 67 73 69 66 67 67 70 68 68 75 76 76 75 77 75 76 79 81 76 75 70 64 59 58 57 58 60 74 77 73 71 70
73 77 79 89 84 76 68 74 70 69 72 61 61 58 62 61 60 61 62 62 69 70 72 74 72 81 79 71 59 57 68 74 76 64 62 56 63 61 62 67 75 75 75
85 85 85 86 82 65 61 67 72 78 61 57 54 54 56 57 58 59 61 66 70 69 69 69 68 69 74 80 49 57 70 71 71 80 83 70 72 73 70 61 65 72 80
59 64 70 69 62 53 71 76 79 58 57 56 57 60 61 60 63 64 71 73 74 70 70 69 72 76 71 76 73 58 69 63 70 75 84 80 76 70 66 63 70 74 78
58 67 70 63 61 64 75 76 67 64 62 62 65 56 63 66 60 55 68 68 75 72 72 75 79 78 79 77 79 87 65 56 65 70 81 73 90 82 72 65 71 76 80
55 55 49 51 54 61 58 58 61 60 63 67 64 66 59 60 61 62 64 70 73 76 78 78 81 83 87 87 90 89 93 93 94 80 74 68 79 84 89 91 71 59 77
58 54 48 46 45 48 52 56 61 68 69 74 76 69 60 61 61 59 62 69 76 78 77 82 78 89 87 92 92 77 88 87 83 82 76 64 72 69 88 95 81 74 83
56 55 52 48 47 48 49 54 66 63 67 75 71 62 59 62 61 59 68 68 70 76 80 83 90 89 93 93 95 94 90 90 81 89 80 78 70 78 85 91 89 88 77
57 53 50 44 44 49 51 54 61 61 66 68 62 61 62 66 64 69 65 74 75 82 83 87 86 90 91 93 94 93 95 94 94 94 86 91 79 79 82 87 92 93 87

GFSSE_sfc_rhum_009.txt.gz
RH
97 95 91 91 90 90 92 92 90 88 86 84 82 82 82 81 81 82 83 83 80 74 74 75 76 78 78 79 82 83 83 84 84 79 76 70 61 58 69 80 74 73 77
95 92 93 91 90 90 91 92 90 88 87 83 84 84 83 80 78 79 79 78 73 69 70 72 74 76 77 79 81 82 82 85 84 81 73 68 67 65 65 76 79 77 78
92 89 87 92 91 90 90 90 89 88 84 84 84 84 81 78 78 79 78 75 70 67 67 69 72 74 76 79 82 82 83 83 86 84 80 85 78 66 68 79 75 77 75
90 89 90 94 94 92 91 90 89 85 85 86 84 83 79 78 77 76 76 77 70 67 66 66 69 73 78 82 84 84 83 83 85 85 87 84 78 71 63 68 74 71 74
91 90 94 96 95 94 94 92 91 92 92 89 86 81 78 77 74 72 74 73 68 66 65 65 67 71 76 80 80 78 77 78 85 85 91 90 87 73 67 68 74 75 80
98 96 96 96 96 95 95 95 95 95 92 89 87 80 77 75 73 72 73 70 67 65 65 64 65 69 73 75 75 74 75 77 81 93 93 91 87 75 68 70 79 79 81
98 97 96 97 97 95 93 93 95 94 92 91 88 83 78 76 74 72 72 70 69 67 66 66 67 68 70 71 70 75 80 82 88 92 92 93 94 78 70 71 76 77 80
90 92 95 97 96 96 95 95 95 94 94 93 90 85 79 78 78 73 71 70 69 67 67 68 70 70 71 70 73 79 81 83 85 86 82 96 90 82 73 68 78 82 82
81 85 92 94 98 98 96 95 93 92 92 92 91 88 85 85 82 78 74 70 68 66 68 69 72 73 71 73 77 80 83 84 90 84 73 90 85 80 75 71 76 79 80
86 87 94 100 99 98 98 95 94 92 91 92 90 87 85 81 81 81 80 78 75 71 71 73 75 76 75 78 79 82 81 81 84 81 88 94 82 76 70 72 75 80 84
97 99 99 99 98 98 97 93 91 88 88 88 88 86 88 90 87 85 85 82 79 78 76 78 80 82 82 81 81 83 75 76 79 75 78 82 82 75 70 70 77 79 81
97 97 98 97 97 97 81 95 95 91 94 94 92 92 94 93 94 84 86 87 85 85 84 84 86 86 89 95 90 82 74 62 66 64 69 75 71 67 70 68 72 74 78
80 83 86 88 94 95 85 98 99 98 97 96 92 94 95 93 96 96 97 96 96 90 96 94 94 96 94 95 93 90 79 60 61 58 59 69 67 68 65 62 68 64 73
78 74 77 86 88 89 92 95 94 95 96 97 95 94 96 96 92 90 92 87 83 83 83 93 96 93 90 85 89 90 83 66 58 56 62 71 71 66 60 58 58 63 68
68 70 77 86 84 80 87 90 92 93 92 91 94 90 92 89 81 82 81 80 80 81 81 78 77 74 74 75 76 75 72 66 58 55 61 66 72 67 59 56 57 56 60
60 67 76 80 81 74 79 86 88 90 93 93 92 90 81 83 83 83 79 76 78 84 84 81 80 80 81 80 71 73 76 74 65 57 55 59 68 72 73 63 58 57 56
62 66 81 84 86 80 78 80 85 90 82 88 82 70 71 76 78 75 73 70 73 79 72 73 75 77 72 70 69 71 71 70 71 67 64 59 62 68 74 76 72 71 67
76 80 91 83 90 85 77 81 84 80 76 78 77 76 71 68 68 70 65 66 72 77 76 73 76 68 70 76 74 67 67 73 70 73 74 72 71 66 69 69 69 72 73
85 88 89 95 93 91 83 86 89 80 74 67 66 72 66 64 64 67 69 76 79 76 77 75 70 74 75 74 62 62 68 72 70 71 80 77 75 70 63 63 71 72 70
93 90 92 91 87 86 77 71 82 86 82 77 68 64 62 66 68 69 74 76 79 74 73 74 73 74 75 80 56 58 65 64 69 91 87 73 72 71 66 62 71 71 74
80 81 84 82 80 77 77 83 87 74 70 72 69 74 68 62 59 67 72 73 75 72 75 76 80 79 73 81 79 64 71 59 64 85 89 88 78 74 66 65 67 63 66
75 79 73 73 71 76 84 83 81 79 70 71 64 60 59 64 63 58 68 72 76 75 75 79 83 83 85 90 94 95 85 69 82 72 82 74 84 86 76 65 70 55 55
60 62 55 58 58 65 72 72 66 67 71 70 71 67 62 63 62 65 69 77 80 81 84 87 90 90 92 91 92 94 95 96 96 83 69 76 82 83 88 88 78 63 67
58 54 50 49 50 51 54 56 57 63 67 78 77 65 62 65 64 67 72 78 82 85 88 90 88 96 96 98 96 82 91 94 97 88 79 64 78 69 87 91 87 82 82
57 55 54 51 49 50 52 57 68 71 75 80 69 62 61 67 72 70 72 70 75 83 87 87 90 90 92 94 96 96 93 92 93 91 91 79 79 78 78 92 88 92 87
63 60 56 53 55 56 58 63 71 69 74 65 62 65 65 69 74 73 67 75 82 83 85 87 88 86 89 92 94 95 95 91 94 95 97 82 85 81 85 88 92 91 89

GFSSE_sfc_rhum_012.txt.gz
RH
97 94 91 91 91 91 90 89 88 88 86 84 82 82 82 80 80 81 82 81 77 71 71 73 75 75 76 77 79 81 82 82 85 81 80 70 68 65 71 77 77 74 77
95 95 93 91 91 91 90 89 89 89 86 82 83 82 81 79 79 79 75 75 72 67 68 70 72 73 75 78 81 81 82 83 86 84 79 74 72 68 65 75 78 75 78
96 92 88 91 91 91 89 88 89 86 84 84 83 80 78 77 77 76 74 76 69 66 66 67 69 72 76 80 82 81 81 81 84 83 80 83 81 71 68 76 76 76 75
92 93 90 92 92 91 90 90 89 85 84 84 83 79 78 75 74 72 74 77 68 64 63 63 64 68 72 74 74 72 72 74 80 82 87 87 81 77 69 69 72 73 74
95 96 95 95 93 92 92 92 90 90 90 88 84 78 76 72 70 71 73 73 65 62 59 58 61 64 69 71 71 70 72 74 77 78 85 89 91 75 72 71 76 77 81
99 98 97 96 95 94 93 93 94 94 93 91 86 78 75 72 69 70 70 67 64 60 60 61 63 67 70 71 72 72 75 77 81 86 88 86 89 81 76 75 79 79 81
99 98 97 97 96 95 94 94 95 93 91 91 87 83 77 74 71 70 70 68 66 65 65 66 68 70 71 72 72 75 78 80 85 83 83 94 94 82 77 73 76 78 77
90 98 96 95 95 95 94 96 95 93 92 92 89 84 78 77 77 70 70 69 67 68 69 70 71 72 73 74 77 81 82 84 77 79 80 87 82 79 75 72 79 80 76
85 90 96 98 96 96 96 96 95 94 93 92 89 87 85 84 80 76 74 72 69 70 72 73 75 77 75 77 80 82 82 81 82 79 70 82 79 76 71 68 74 80 83
84 81 83 86 94 99 98 95 92 91 92 90 89 87 84 82 79 78 77 75 75 73 73 75 77 79 80 82 83 84 83 67 70 74 75 79 74 69 70 70 71 76 80
90 91 94 92 98 99 97 95 92 89 89 88 87 86 88 89 86 85 85 83 82 81 81 81 82 84 86 86 82 84 82 70 64 64 66 66 67 59 60 68 76 76 78
89 93 94 99 99 98 88 96 96 92 95 94 94 93 94 92 92 86 87 88 87 86 88 87 88 89 90 95 93 84 85 78 64 59 59 63 62 56 57 64 74 74 75
96 99 98 98 97 97 94 98 98 98 98 96 94 94 93 93 96 96 98 96 95 86 92 88 92 94 92 94 92 90 88 84 74 62 55 67 62 60 55 56 65 68 71
93 94 94 95 96 96 96 98 97 98 97 98 96 94 96 97 94 93 92 83 81 82 80 85 89 85 82 77 80 85 85 83 75 68 64 68 64 60 55 53 56 64 68
84 83 87 91 92 90 93 96 96 97 97 95 96 94 95 94 86 87 83 82 81 84 84 81 80 78 78 76 74 77 77 76 73 70 70 67 68 64 63 62 59 57 60
76 81 85 90 91 83 89 92 96 96 95 95 96 93 86 88 85 83 78 76 77 84 80 81 81 80 78 74 66 71 71 71 70 73 71 72 71 70 70 70 70 70 68
73 80 89 92 88 92 90 92 94 96 86 93 88 83 84 80 82 77 73 71 76 82 78 75 75 72 70 67 66 66 65 69 71 78 78 75 75 70 65 63 65 69 72
87 95 94 89 95 95 94 92 93 89 93 82 84 90 81 74 71 72 74 80 80 78 75 76 80 69 73 76 72 67 67 67 68 81 80 79 77 64 62 62 63 62 61
93 94 97 96 95 96 91 93 90 86 89 74 81 78 70 70 71 73 73 76 75 75 77 74 76 75 77 77 66 65 66 69 74 75 80 77 74 73 64 60 62 63 60
97 95 95 93 92 90 88 82 90 91 90 88 84 75 70 63 64 66 67 74 73 73 77 77 74 75 77 83 63 61 70 68 80 91 83 69 72 74 68 64 64 60 57
90 92 89 89 87 84 84 89 85 85 88 83 73 67 62 58 60 66 72 74 76 76 79 81 82 82 78 91 85 68 78 67 81 85 83 80 77 76 75 67 65 62 54
87 92 88 83 75 77 82 87 88 84 81 75 67 65 66 66 64 64 75 80 79 78 83 88 88 85 85 94 95 95 85 78 79 69 81 74 80 82 70 61 69 68 64
81 72 64 66 65 70 78 74 70 72 77 73 74 64 67 66 68 71 77 79 80 81 88 92 91 90 92 92 94 94 96 93 93 80 69 78 79 79 82 79 74 70 68
60 58 56 56 55 56 58 59 59 66 73 84 72 65 68 70 71 70 72 77 80 85 86 91 86 91 92 94 94 81 91 96 96 87 78 72 76 71 83 87 84 80 76
59 60 61 57 57 58 60 69 77 80 86 74 68 64 63 70 67 68 71 77 82 86 86 87 88 84 88 90 93 95 94 94 92 90 85 75 67 71 80 87 90 88 82
63 64 64 67 68 69 69 72 73 77 66 64 68 71 71 72 76 75 74 83 86 86 86 87 86 85 90 90 93 93 97 95 94 89 92 87 86 74 72 86 90 89 89

GFSSE_sfc_rhum_015.txt.gz
RH
75 67 91 88 89 88 88 88 88 87 87 85 83 81 82 80 80 82 80 77 74 67 68 70 72 74 76 78 80 81 81 83 84 82 79 72 68 67 68 76 76 47 77
72 72 93 88 90 88 87 88 88 88 86 82 81 80 81 79 77 76 76 74 71 66 67 69 70 72 74 76 78 78 78 80 83 82 78 66 65 72 70 77 80 59 76
77 73 69 88 90 87 86 88 89 86 82 82 80 78 77 76 75 73 75 74 69 63 62 62 63 63 65 67 67 66 68 73 76 78 75 51 50 77 71 77 79 76 74
75 71 66 89 90 88 88 90 88 84 83 82 79 77 75 73 72 73 72 74 68 59 57 56 57 60 64 67 68 69 70 72 73 70 49 55 55 73 72 71 72 73 73
78 72 70 90 92 90 91 91 89 89 89 87 82 76 73 70 69 71 72 72 62 57 56 56 58 62 66 70 71 72 72 74 74 53 46 60 58 67 78 74 69 71 77
75 73 87 94 93 92 92 92 93 93 93 90 85 77 72 68 67 69 71 68 61 62 62 62 64 67 70 75 74 72 75 76 67 44 50 62 62 78 74 77 80 77 78
76 73 76 96 94 93 93 93 94 94 93 90 86 82 75 70 68 68 70 68 66 66 65 66 69 70 72 77 75 74 78 78 46 42 44 53 61 75 70 70 78 78 76
80 81 77 93 96 95 95 95 94 92 92 90 88 84 77 75 74 71 70 69 69 70 71 71 72 73 74 76 78 82 81 79 39 35 41 43 70 72 70 69 79 82 81
77 80 81 77 85 97 96 96 94 92 91 90 88 86 84 81 77 76 75 72 69 74 75 75 76 78 76 79 80 84 83 70 37 34 32 32 68 65 66 70 73 76 78
79 80 79 79 76 80 80 96 94 92 91 89 87 85 83 79 77 76 75 76 77 77 76 77 81 82 83 85 84 85 85 68 39 34 31 31 66 58 56 62 70 72 74
85 83 80 81 83 86 79 80 87 89 89 88 82 83 79 60 60 61 77 81 82 82 84 84 84 86 87 81 82 85 81 43 45 37 34 58 61 57 55 62 73 77 76
84 84 85 87 88 86 72 75 74 67 64 66 66 70 64 71 67 66 76 85 84 86 83 82 83 84 72 50 45 60 45 52 46 45 38 64 63 58 55 61 67 70 72
74 77 82 86 88 83 72 71 66 66 67 68 74 74 73 72 74 67 65 57 61 66 51 55 54 50 58 53 50 52 49 47 44 41 46 70 68 64 61 59 61 64 68
81 80 85 85 84 82 70 70 69 65 68 69 71 77 76 70 70 66 52 55 59 56 57 54 50 59 56 53 52 52 49 41 35 34 42 72 71 69 68 68 68 68 66
72 72 77 79 78 77 77 72 72 74 73 76 74 77 71 66 65 60 61 55 54 51 50 50 50 49 49 46 46 45 41 42 40 33 38 75 73 70 67 67 68 70 70
60 65 73 75 73 70 72 77 84 88 88 92 93 89 83 68 69 61 55 49 49 50 50 48 51 45 44 42 42 45 42 40 43 43 35 45 66 64 64 64 63 63 63
56 62 77 82 78 79 80 87 90 86 86 90 88 84 80 72 62 56 52 52 54 52 52 49 48 45 43 38 39 36 37 39 40 50 45 43 41 60 62 62 61 60 59
60 69 80 80 83 86 90 94 87 86 87 78 83 77 66 60 60 61 54 56 54 50 52 48 44 40 42 41 40 36 38 33 42 55 47 44 42 38 48 60 59 58 57
68 78 83 85 83 88 95 88 86 81 82 63 66 60 60 57 60 56 52 55 56 49 50 45 45 47 44 40 30 33 32 28 42 44 50 49 51 46 40 48 54 52 57
79 80 83 83 82 84 85 74 74 75 67 58 54 48 48 46 52 50 50 55 49 47 49 46 48 44 46 47 30 33 33 35 46 48 45 42 46 49 44 45 41 38 52
79 78 77 83 74 67 56 68 67 68 60 51 44 49 49 47 48 52 48 50 50 49 53 52 46 47 39 50 40 34 33 47 52 43 45 44 46 43 47 44 40 37 34
74 72 74 72 59 51 57 59 58 57 54 46 46 50 48 51 49 48 54 50 52 48 56 57 53 44 47 59 47 40 34 31 37 44 40 44 50 48 46 46 49 47 43
80 70 55 54 54 54 57 52 52 56 55 50 44 43 47 49 46 50 54 52 53 54 55 62 62 61 51 53 67 50 45 40 49 39 44 42 53 47 46 46 47 47 50
57 56 50 49 46 47 50 48 53 48 49 53 46 43 42 50 48 45 51 56 61 60 64 61 57 58 52 47 43 49 53 55 50 47 37 41 44 42 49 49 48 50 52
49 50 52 52 50 52 54 56 53 57 52 46 47 52 53 53 53 51 54 60 63 59 64 63 57 52 46 43 43 45 47 45 46 59 48 41 38 37 41 42 48 48 46
51 56 56 48 48 50 50 53 56 54 50 46 50 52 52 53 53 58 57 62 63 62 59 57 59 53 51 48 44 45 42 44 43 51 54 44 42 35 34 38 43 40 37

GFSSE_sfc_rhum_018.txt.gz
RH
55 54 92 90 90 89 88 88 88 88 86 83 81 80 80 79 78 79 77 76 73 68 69 72 73 73 74 75 75 76 77 80 81 80 77 67 69 68 72 74 78 42 75
53 58 91 90 89 88 87 88 89 88 85 79 79 79 79 77 77 77 76 74 70 64 63 62 61 61 62 63 64 65 68 72 76 76 73 64 77 72 71 75 81 58 73
58 52 58 90 88 86 86 88 88 85 81 79 76 76 74 73 73 72 74 73 65 60 58 57 56 56 58 63 66 66 67 68 70 69 66 34 39 72 72 75 76 73 71
61 51 50 91 88 87 89 89 88 83 81 78 75 74 72 72 71 71 70 71 64 56 53 53 53 58 64 68 69 69 70 72 71 68 32 38 37 76 70 71 69 73 73
65 50 54 90 90 90 90 88 88 89 87 84 79 72 69 70 69 68 69 69 61 59 58 57 57 63 67 70 70 70 71 72 72 48 27 43 40 64 71 72 65 68 73
76 59 83 91 89 89 88 88 92 92 90 86 82 74 67 65 65 66 67 67 62 62 61 61 64 68 71 74 70 68 73 72 74 25 30 44 44 71 70 72 76 73 72
85 64 66 93 87 87 87 93 93 92 90 87 84 79 70 64 64 66 68 68 67 65 65 66 68 70 73 75 74 72 72 71 23 19 23 31 46 67 67 70 73 72 70
60 60 62 83 86 91 94 94 93 92 90 89 85 79 71 69 70 68 69 69 69 68 69 69 71 72 74 76 77 80 76 71 26 22 21 22 66 62 63 68 74 74 72
56 62 63 60 73 97 96 94 92 91 89 88 86 84 80 78 79 74 72 69 68 69 71 72 75 77 78 80 81 82 83 67 29 24 21 22 64 57 55 59 67 71 70
66 62 67 60 59 65 67 94 92 90 88 86 85 83 81 77 76 74 73 75 74 74 75 76 78 80 81 82 81 83 82 78 26 24 22 34 63 57 55 58 61 66 69
68 65 59 51 56 56 52 70 86 88 87 85 78 80 74 40 44 47 77 80 80 80 81 80 80 82 81 78 72 72 77 24 28 24 24 69 68 62 57 57 66 70 68
76 69 70 70 76 63 48 55 50 44 40 44 45 51 42 52 49 50 64 78 77 76 70 72 75 75 66 27 26 46 26 32 26 27 31 72 67 64 63 63 63 65 70
65 69 71 80 83 56 51 44 37 39 45 50 57 54 54 53 52 43 38 36 42 55 34 39 36 30 40 36 31 34 31 28 25 24 52 74 68 65 66 68 70 71 71
52 54 72 77 71 60 43 39 42 42 48 49 52 62 60 50 52 47 36 40 44 38 40 36 32 41 40 36 37 36 35 30 25 23 49 76 70 64 64 65 67 68 71
42 48 58 58 60 57 54 49 52 54 50 56 57 63 57 60 58 46 46 40 39 35 35 35 34 33 33 32 34 34 32 33 33 26 27 69 66 65 64 63 63 63 63
39 48 55 51 53 50 54 60 63 67 74 76 79 75 79 82 72 49 45 39 36 35 34 34 35 31 30 31 30 34 34 32 31 34 27 34 64 63 62 61 60 60 59
36 44 53 57 53 60 67 80 77 82 82 83 85 84 89 84 61 52 52 51 43 40 39 35 34 32 31 28 30 30 30 31 30 34 32 28 32 64 60 61 59 57 58
35 46 58 63 63 77 88 90 96 84 79 73 78 78 68 58 54 56 42 42 44 39 35 35 34 31 31 31 32 28 28 27 27 33 35 35 30 27 47 54 54 53 53
38 49 63 68 70 73 83 94 78 77 80 70 60 49 54 50 48 42 40 43 43 36 38 35 34 37 33 33 30 27 28 28 27 24 36 39 39 37 32 48 52 53 47
46 54 66 70 73 79 79 68 56 54 44 41 38 37 38 39 43 39 40 45 38 35 35 37 42 37 38 38 32 28 31 27 26 30 35 30 30 37 34 36 34 30 51
57 60 65 70 72 68 52 48 46 47 42 39 35 40 40 38 39 40 35 37 39 39 45 45 42 42 38 38 40 30 27 26 34 31 29 30 34 34 37 34 34 32 30
59 60 62 59 58 46 40 40 40 41 38 36 37 41 38 38 35 34 40 38 42 40 44 48 49 43 36 40 49 43 34 28 23 29 30 29 36 33 33 34 38 37 36
62 61 53 49 43 42 44 40 41 42 39 36 34 33 34 39 36 38 41 42 43 42 39 48 48 50 44 39 42 44 45 38 34 29 30 27 36 34 34 32 35 36 37
52 44 41 41 42 40 36 37 42 36 37 40 36 35 34 42 42 38 40 44 46 44 47 47 41 46 43 40 35 29 40 42 43 42 30 31 28 28 34 31 34 32 33
45 44 42 38 36 38 40 42 39 41 38 36 37 42 42 40 41 40 41 44 48 46 48 52 48 45 42 44 40 37 36 33 34 35 36 31 26 24 24 28 30 32 31
39 42 42 38 38 38 39 41 43 43 38 35 38 34 28 27 26 30 35 48 49 49 53 47 46 51 50 42 34 34 34 34 33 34 35 33 32 28 25 27 30 30 30

GFSSE_sfc_rhum_021.txt.gz
RH
48 49 91 90 89 88 88 88 88 87 86 82 79 79 78 76 78 79 77 76 74 68 68 66 65 64 63 64 65 67 70 74 76 74 70 66 70 71 74 75 78 47 74
47 46 92 90 88 87 87 88 88 87 83 78 78 77 78 77 78 76 75 72 67 60 58 57 56 54 55 59 63 64 64 65 69 71 69 69 72 72 73 74 76 59 70
48 44 57 90 88 87 86 87 87 83 78 76 77 74 73 72 71 71 72 70 62 57 55 53 54 59 63 66 68 68 68 68 66 68 69 44 50 70 67 74 75 73 71
49 52 54 91 88 89 89 89 86 80 77 75 74 71 71 70 69 68 67 69 61 56 54 53 58 60 63 66 67 68 68 70 72 76 32 28 46 70 66 69 68 71 71
56 52 64 90 90 89 89 88 89 87 84 81 76 69 69 66 65 64 65 68 62 60 57 58 61 64 67 67 66 66 68 69 74 60 28 35 36 63 70 70 64 69 72
71 73 89 92 90 88 86 90 91 89 87 84 79 70 65 63 63 65 67 66 63 61 60 61 64 68 72 74 70 67 69 74 72 17 26 42 46 68 69 70 71 68 72
89 86 73 91 88 85 87 90 91 89 88 85 80 74 67 62 63 68 69 68 67 65 64 66 68 70 73 74 75 77 75 76 30 18 18 35 52 63 68 71 73 72 69
89 85 76 84 85 86 90 94 93 91 89 87 82 76 66 67 67 68 69 68 68 68 68 68 71 73 74 76 77 79 81 79 30 23 20 31 64 59 56 62 71 72 70
92 82 69 63 75 96 94 93 92 90 89 87 84 81 75 75 74 70 69 68 68 69 70 72 74 76 76 77 77 79 80 80 46 23 21 30 64 58 56 58 62 66 68
95 77 66 65 59 69 74 93 91 88 87 86 80 80 78 76 72 70 73 74 74 74 76 77 77 78 77 77 76 70 75 77 26 22 29 49 67 63 58 58 59 62 65
74 66 60 49 54 55 60 77 85 87 85 83 75 76 71 39 45 49 74 75 75 76 74 71 74 76 76 75 69 61 68 25 26 22 36 75 68 64 62 62 62 63 64
64 61 58 61 54 50 38 52 44 41 37 43 42 45 39 46 45 45 61 71 70 65 65 64 66 71 72 28 27 49 26 29 23 23 42 75 66 64 67 69 71 72 72
57 65 70 77 67 46 43 36 32 35 42 46 51 47 49 45 45 42 37 36 40 54 35 40 38 31 38 35 32 34 32 30 23 22 60 76 66 62 64 68 69 71 72
48 58 71 73 59 46 36 32 35 36 42 41 45 53 53 51 48 45 37 37 40 34 40 36 33 39 36 34 33 35 33 29 26 26 60 76 66 61 60 62 63 63 64
37 47 58 55 51 49 44 45 48 48 57 67 56 64 59 55 63 68 64 48 40 37 36 37 35 34 36 32 32 31 33 32 31 27 28 71 68 62 58 58 58 58 59
33 42 45 44 47 42 49 56 60 66 67 72 76 85 80 70 72 67 66 53 45 41 42 37 38 35 33 31 31 30 32 31 31 33 28 38 71 64 60 57 58 58 58
30 38 44 48 46 51 61 61 67 70 69 73 80 80 81 82 76 64 63 56 45 43 42 36 36 32 29 27 31 29 28 28 27 29 28 31 41 71 62 58 54 54 53
29 41 46 44 52 60 66 76 89 88 72 74 75 79 73 69 57 60 52 47 48 43 36 37 34 34 34 32 32 30 28 26 28 30 26 30 32 31 54 53 48 44 46
30 41 53 55 62 66 72 86 91 71 68 67 57 49 52 48 46 43 40 43 45 36 37 37 37 40 38 37 32 29 32 27 29 21 26 29 38 36 32 46 55 55 41
30 42 54 60 65 74 77 67 55 57 53 45 39 36 38 39 41 39 38 45 41 37 39 43 49 43 41 36 26 32 35 26 25 26 30 28 29 31 33 36 34 34 55
41 47 66 71 73 72 55 53 52 47 42 38 34 38 38 37 37 40 35 37 40 42 45 46 45 48 36 34 34 36 34 36 34 26 24 27 32 28 32 31 32 31 32
46 50 63 60 63 54 43 40 39 39 34 32 35 40 36 37 36 34 43 42 42 42 44 43 44 44 38 36 40 40 41 32 26 28 28 28 37 27 28 32 34 34 34
53 58 55 53 49 40 39 38 38 37 38 34 35 33 36 39 37 39 41 42 43 40 36 42 43 48 42 38 39 39 43 40 37 31 32 28 38 30 33 29 30 30 33
52 49 43 42 39 41 35 31 34 31 34 38 36 36 35 38 40 37 36 40 42 40 43 42 33 45 46 42 39 33 40 42 43 40 28 27 27 26 35 28 26 28 29
43 42 41 39 33 33 35 38 36 39 38 35 36 36 34 30 27 25 26 32 42 42 44 46 48 47 43 47 43 45 38 35 34 34 35 29 25 23 24 26 27 28 27
39 41 40 34 34 36 38 41 43 41 36 32 30 26 24 23 22 25 25 32 36 41 45 44 46 48 52 50 40 39 37 34 33 34 35 37 35 28 25 26 33 29 30

GFSSE_sfc_rhum_024.txt.gz
RH
58 74 91 90 89 88 88 88 89 87 85 84 84 82 82 82 81 80 78 75 72 63 59 58 56 55 57 59 61 62 63 67 73 72 73 72 71 73 73 76 76 62 77
61 68 91 89 88 87 87 89 87 86 83 80 82 82 81 80 79 77 74 71 67 57 54 55 58 61 62 65 67 68 68 70 74 74 71 72 73 68 71 75 80 71 76
58 66 71 89 87 86 88 87 86 83 80 76 78 80 78 77 76 75 72 69 65 55 54 58 58 58 61 64 67 68 70 76 79 80 73 67 62 67 70 77 78 75 75
57 57 67 91 88 89 89 87 83 80 78 78 77 76 76 72 70 71 73 71 68 58 58 57 57 58 61 64 66 66 71 74 75 76 52 48 55 71 68 71 72 71 72
53 54 75 91 89 88 87 88 86 84 82 79 76 71 67 64 65 68 74 72 67 60 59 61 64 67 71 78 77 76 75 75 74 66 48 57 61 67 70 70 67 68 75
68 73 88 86 86 87 88 89 88 87 84 80 76 73 66 64 68 70 76 73 65 63 63 64 68 71 80 81 80 79 78 76 69 33 45 59 64 68 69 73 78 76 76
93 89 84 90 83 86 89 89 88 88 86 82 78 75 72 66 69 74 78 76 72 67 67 68 71 75 79 80 80 80 80 80 54 37 46 62 70 61 60 67 74 75 74
92 94 92 86 83 89 92 91 90 89 87 84 79 75 73 74 76 76 77 76 76 75 74 73 76 78 79 78 76 76 78 80 48 46 45 63 71 60 57 61 74 76 76
90 95 97 87 81 94 94 92 91 89 88 87 83 81 81 81 79 77 78 77 76 77 77 77 79 80 78 77 74 70 74 74 65 46 43 64 69 62 58 60 66 72 74
98 92 89 80 86 89 85 90 89 88 88 86 81 79 79 77 76 76 79 78 76 76 76 76 78 76 77 75 73 72 71 68 44 46 63 80 71 64 63 62 64 69 74
95 95 83 80 79 83 81 83 86 86 86 82 78 76 78 64 69 70 78 76 77 77 75 70 70 71 76 77 70 74 71 42 41 46 66 78 69 66 69 71 72 74 74
94 93 81 79 79 77 58 74 74 68 67 65 60 69 67 67 61 55 68 73 72 68 67 69 69 72 74 50 53 62 48 48 43 50 77 76 66 64 68 69 72 73 74
76 76 78 80 73 58 61 64 55 59 67 72 69 66 69 65 69 67 75 65 76 73 60 66 60 53 51 55 53 56 52 46 49 48 74 75 62 57 60 62 64 65 66
68 73 75 75 72 65 54 56 59 59 69 68 71 68 77 83 77 78 78 72 67 59 59 60 61 57 57 49 50 50 48 51 49 47 79 74 68 54 54 55 57 58 60
65 75 73 71 67 62 66 69 73 80 89 91 88 83 85 84 85 82 81 75 72 65 66 65 60 56 54 50 50 47 45 46 47 49 66 73 71 56 51 53 55 57 58
56 62 63 59 66 60 68 79 83 78 82 86 87 90 90 90 90 77 80 80 74 67 63 63 61 58 56 50 47 49 48 45 45 49 46 70 71 65 56 56 54 53 52
47 51 57 64 61 69 75 74 75 76 76 85 87 86 88 90 84 80 79 76 73 67 62 61 58 55 54 46 48 47 46 43 43 45 48 43 71 74 65 54 47 45 47
41 49 55 50 68 75 76 82 92 95 84 88 89 88 83 79 72 74 71 73 72 70 62 61 62 61 60 59 59 54 52 46 39 39 43 45 57 54 66 58 48 43 45
43 49 57 65 72 78 82 90 92 83 77 77 75 72 68 62 60 66 70 72 67 65 64 63 68 69 67 63 49 45 55 50 47 32 38 41 47 48 46 60 60 55 44
46 56 63 72 81 76 86 90 75 73 72 68 63 58 56 56 57 62 68 64 62 65 67 71 71 68 70 62 36 37 55 56 47 47 41 39 45 44 47 41 48 50 56
51 65 69 84 89 77 86 82 69 73 64 62 51 55 54 53 51 56 64 64 64 66 69 64 65 66 67 63 60 57 56 50 51 43 47 46 46 33 43 48 48 50 46
54 69 77 80 84 73 71 66 60 57 59 52 56 56 53 54 52 51 61 62 65 65 64 66 67 70 67 66 68 61 64 55 49 46 51 45 47 46 43 38 44 44 50
69 72 70 70 70 66 62 51 52 51 57 53 56 56 55 53 51 53 56 60 63 63 65 68 66 67 71 66 62 69 70 70 60 56 48 48 49 53 53 46 38 40 41
72 74 65 63 58 52 53 54 56 51 54 58 59 59 54 52 50 43 45 54 61 66 68 69 53 70 68 70 65 52 64 66 64 58 50 46 45 37 46 54 46 42 41
63 65 60 54 49 48 49 55 57 59 60 58 58 51 46 48 42 39 44 56 59 62 66 69 71 68 68 70 72 68 63 63 58 61 54 52 45 45 43 48 54 51 42
54 58 59 47 43 48 53 59 62 61 55 51 50 50 44 44 44 47 46 56 59 62 64 69 68 66 70 79 77 66 63 62 57 62 62 57 54 50 48 49 52 53 54

GFSSE_sfc_rhum_027.txt.gz
RH
93 92 93 91 90 90 90 90 89 88 86 84 84 84 83 82 79 76 73 70 66 58 56 58 60 61 62 62 65 68 69 71 75 76 78 71 70 70 71 77 77 70 75
90 88 92 90 88 89 89 88 87 85 82 81 83 83 82 80 77 74 71 68 64 59 60 60 59 58 58 62 66 68 70 77 79 78 77 71 68 69 72 76 81 77 78
89 86 84 89 88 88 88 86 85 82 79 79 80 80 78 76 75 74 72 68 66 59 56 55 55 55 58 63 66 67 71 75 76 76 73 71 69 68 70 78 78 75 73
83 84 84 89 89 89 87 85 82 78 77 80 79 76 74 72 71 74 75 71 68 61 60 61 62 64 67 71 73 74 76 75 78 72 69 63 62 71 68 67 67 68 71
75 77 84 90 89 87 86 86 84 82 81 78 76 72 70 69 69 71 74 71 68 63 62 63 64 67 71 78 77 75 75 74 70 61 72 78 77 67 72 73 72 69 68
80 84 86 85 83 88 88 87 85 83 81 78 75 72 70 69 71 73 77 73 67 65 64 65 67 70 78 80 79 77 75 78 63 65 74 73 72 64 65 73 75 72 74
89 87 79 84 85 89 88 87 87 85 82 79 77 76 76 71 72 76 80 77 72 69 69 70 72 77 79 79 78 76 71 73 51 64 74 74 72 61 60 64 69 72 71
90 87 84 88 88 92 90 90 89 86 82 79 78 78 78 79 80 80 80 80 79 77 77 76 78 78 78 77 77 76 74 72 53 61 70 76 74 62 60 63 73 77 77
95 94 95 94 94 93 91 90 89 88 84 82 82 81 80 81 81 80 80 80 80 80 79 78 77 76 74 71 76 82 78 75 60 63 60 82 72 64 65 66 67 72 77
98 97 94 98 92 92 86 90 89 88 85 82 81 81 81 80 80 80 79 78 76 74 74 75 71 72 73 73 74 79 75 64 60 71 86 86 73 67 71 73 75 76 77
95 95 96 97 95 88 86 84 86 85 82 79 79 79 82 77 75 76 78 76 73 71 71 71 70 70 76 73 76 74 72 48 58 72 88 78 70 67 70 73 74 74 74
91 96 98 88 92 82 66 82 87 78 81 74 72 76 73 75 75 68 76 80 77 76 75 71 74 74 70 54 56 63 56 49 54 72 87 74 64 60 63 66 67 67 67
87 95 90 92 86 72 70 77 78 79 81 74 68 71 75 73 72 74 79 74 79 78 68 65 64 60 55 57 59 57 53 50 59 72 75 70 62 54 57 60 60 61 63
87 85 86 81 78 66 71 73 68 70 78 82 80 84 87 91 89 86 83 79 79 81 70 70 65 57 56 53 52 54 53 52 57 68 77 69 66 51 52 54 56 58 59
83 81 80 77 66 66 73 81 86 93 97 97 96 92 92 93 91 85 87 78 80 74 72 69 63 59 56 52 53 50 50 47 48 55 78 70 69 57 52 54 54 53 52
80 81 80 74 66 76 86 88 93 92 95 93 96 95 94 96 91 90 83 82 74 70 66 66 62 64 58 55 53 53 49 50 46 47 60 77 72 68 58 54 50 47 47
73 73 79 70 78 83 83 83 88 89 90 97 97 94 94 93 88 82 83 80 73 72 65 62 65 66 66 59 59 56 54 50 46 44 50 49 78 74 68 52 43 45 44
66 69 68 61 84 84 88 94 96 94 96 97 97 96 92 86 78 81 80 75 72 73 70 71 74 71 72 71 69 60 59 50 51 45 44 46 78 67 73 61 48 45 45
58 61 67 86 88 91 94 97 96 94 97 97 94 89 83 75 72 76 78 71 68 73 78 72 73 77 75 74 51 49 58 61 52 44 47 45 52 65 63 68 62 60 47
60 68 77 83 91 94 97 97 96 92 89 88 84 74 64 64 62 73 71 66 69 74 75 72 71 69 78 69 48 53 68 60 56 58 53 42 48 46 52 46 51 52 54
68 74 84 86 92 93 97 98 95 91 84 76 67 63 62 59 59 68 71 72 72 71 70 68 72 70 70 74 71 65 60 61 49 58 57 54 48 47 50 50 47 48 49
71 90 88 89 89 90 92 89 84 81 77 67 66 62 61 60 60 60 66 68 64 65 65 70 70 74 77 74 69 75 76 67 63 55 60 50 51 54 48 38 42 44 52
87 93 92 88 84 83 84 78 71 64 68 69 68 67 63 59 56 58 60 63 64 67 70 72 74 74 76 70 69 72 80 84 75 62 49 50 52 53 55 53 44 43 46
90 91 91 87 83 80 81 62 53 55 62 73 74 69 64 62 52 46 53 58 62 71 72 78 66 75 76 76 73 64 68 75 72 73 60 52 52 44 53 57 58 50 47
83 85 76 84 79 65 56 53 69 67 69 71 68 58 45 46 44 44 54 57 60 69 70 73 76 78 76 78 84 80 71 68 66 67 70 62 57 53 55 60 61 59 55
79 87 82 60 54 64 66 68 68 67 57 53 52 51 44 47 54 51 47 57 60 66 70 75 80 76 84 87 84 81 77 68 64 69 72 72 69 64 60 59 61 61 62

GFSSE_sfc_rhum_030.txt.gz
RH
93 94 93 91 91 92 92 91 88 85 84 82 82 82 80 78 76 73 71 68 68 62 60 59 57 57 58 62 66 67 68 71 80 80 77 72 70 71 74 79 80 74 76
89 89 92 90 90 90 90 88 85 84 82 78 79 81 79 77 74 72 70 70 66 57 55 55 56 58 60 64 67 68 69 74 77 80 76 71 70 70 73 75 81 74 75
85 90 86 90 89 89 88 84 83 81 76 75 76 78 76 75 74 73 72 69 66 59 59 59 59 60 62 65 72 73 75 77 79 77 77 82 74 68 67 70 72 71 74
86 84 82 89 90 89 87 84 80 75 74 76 74 74 73 73 73 74 73 72 70 62 60 59 58 60 64 72 74 73 77 79 81 80 75 76 68 71 71 71 68 65 66
87 82 86 90 89 88 86 83 82 82 80 78 75 73 71 70 70 72 75 73 70 62 60 59 60 64 72 78 76 73 73 73 77 73 89 85 79 64 68 71 69 69 68
89 85 90 89 88 88 86 85 84 82 79 77 77 76 72 69 70 74 76 74 67 64 63 64 66 71 78 78 75 74 71 72 70 79 77 75 69 62 63 67 70 70 70
92 86 84 89 89 87 85 84 84 83 80 79 79 78 76 74 72 77 79 77 72 68 68 68 70 76 78 78 76 73 79 72 66 80 83 81 75 63 62 67 70 72 72
91 89 84 86 87 87 86 85 85 83 81 82 81 80 79 79 80 80 81 80 79 77 76 75 75 74 74 77 78 77 77 66 63 74 79 83 76 65 65 69 73 77 77
98 98 91 83 87 91 91 89 86 83 82 83 82 80 80 82 81 80 80 80 79 77 74 70 72 71 69 72 78 79 74 76 74 78 72 88 74 67 70 74 76 77 77
97 97 96 93 94 94 87 90 88 84 84 83 82 81 81 81 81 80 80 78 76 73 70 67 69 69 72 75 75 74 68 75 70 82 90 92 72 65 68 73 75 75 75
98 96 91 93 98 91 88 84 85 82 82 81 80 82 83 82 80 79 78 76 74 73 72 64 67 72 70 74 72 72 63 64 70 81 92 78 64 61 66 68 68 69 69
96 95 92 95 96 88 70 88 89 75 78 80 79 80 75 78 79 75 79 80 78 73 69 72 75 71 66 60 62 63 57 56 70 80 88 73 59 56 61 63 64 64 65
87 82 91 97 90 81 76 88 90 86 80 76 74 76 79 78 78 80 80 75 77 74 70 64 61 58 58 63 62 61 56 55 66 75 75 72 62 51 56 58 60 62 61
92 86 92 94 88 82 76 80 80 76 84 86 92 84 90 94 88 87 84 82 81 78 72 70 68 60 56 56 54 54 52 55 59 66 79 68 68 49 50 54 59 59 56
90 88 86 90 82 78 84 82 86 96 98 98 96 92 90 89 92 88 85 81 75 73 71 67 65 59 58 54 56 53 53 55 49 58 75 74 69 59 48 54 55 52 52
84 86 84 82 76 75 88 96 97 95 97 97 96 96 90 92 93 88 84 79 73 69 68 66 67 67 68 64 62 58 58 51 48 49 58 68 76 69 58 54 49 49 47
82 80 86 78 82 88 89 90 94 97 96 97 98 95 94 93 85 87 84 77 75 73 68 72 72 72 72 64 61 57 56 53 52 48 53 53 76 75 71 53 43 47 44
78 82 76 76 85 86 89 93 96 97 97 98 98 97 94 86 85 86 77 74 76 78 78 78 78 75 75 75 62 56 60 59 52 50 47 55 73 77 77 60 50 46 44
74 77 84 86 87 92 92 95 96 95 97 97 96 94 88 81 80 77 75 76 80 81 80 75 77 76 79 69 58 60 70 64 59 47 48 49 52 61 75 59 56 55 45
71 78 88 85 93 91 95 97 98 97 97 94 90 83 68 70 76 78 78 81 77 74 71 71 67 70 75 75 53 53 64 64 60 63 57 44 50 58 54 49 56 57 52
71 83 89 92 93 90 95 98 98 97 94 90 80 69 66 67 69 73 78 73 71 67 68 70 72 71 72 77 68 67 66 65 62 64 58 54 50 50 52 53 56 56 55
75 82 89 88 90 82 90 96 92 92 85 77 73 69 66 68 68 68 72 69 66 65 67 70 73 75 83 75 70 80 76 72 66 56 55 54 53 52 48 44 49 46 56
77 91 90 92 88 82 81 93 84 76 75 73 74 72 69 65 63 65 68 70 73 74 74 74 75 76 76 76 75 72 80 84 80 68 55 56 53 55 57 54 52 48 52
92 93 92 91 88 86 90 89 79 70 63 75 75 73 71 67 56 55 58 62 65 69 68 77 74 81 83 80 78 68 73 73 74 78 64 57 56 48 59 62 60 54 54
93 96 95 92 88 88 91 82 74 72 75 80 79 71 52 53 56 55 57 60 67 74 72 74 79 86 84 83 87 85 79 75 73 75 72 64 63 60 61 64 64 64 58
92 94 95 95 92 85 90 73 69 74 76 70 63 54 56 61 61 55 56 63 64 68 74 78 83 81 86 88 88 79 76 72 69 72 78 77 76 68 64 63 63 64 64

GFSSE_sfc_rhum_033.txt.gz
RH
93 93 92 90 91 92 90 87 86 84 83 80 80 80 78 76 74 73 73 72 68 59 56 58 60 60 59 61 65 66 71 79 79 79 77 70 69 72 75 78 78 74 76
85 90 92 90 91 90 88 86 85 83 80 76 77 78 76 74 74 74 71 68 65 58 58 59 58 58 60 67 72 73 70 79 83 81 75 69 67 67 67 68 74 73 75
88 90 89 90 90 88 86 85 83 79 72 71 73 75 75 74 75 72 71 70 68 61 58 57 57 58 63 74 82 79 75 79 84 82 77 86 75 68 68 68 68 64 71
85 88 86 90 89 86 85 83 80 74 71 74 72 70 73 70 72 74 75 73 69 64 57 57 58 62 65 75 77 83 83 84 83 81 85 80 65 64 64 65 65 65 67
87 83 86 90 88 86 84 81 79 79 78 77 75 71 70 69 68 71 76 73 69 61 58 58 60 63 73 78 76 76 79 80 82 81 91 80 72 62 65 69 70 70 68
88 87 92 90 87 85 84 84 83 81 80 79 78 75 72 69 68 74 76 73 69 63 62 61 64 73 73 75 80 76 78 74 75 83 81 77 72 64 67 70 72 73 73
95 92 91 91 88 86 85 84 83 82 82 81 79 77 76 74 73 79 79 77 74 68 65 65 72 76 74 71 77 75 78 76 76 86 87 86 80 65 69 74 76 76 76
95 95 88 87 87 85 84 85 84 84 84 82 81 80 79 80 81 81 81 80 78 77 75 73 73 75 75 73 74 77 77 72 69 82 84 88 77 68 71 75 76 76 75
96 94 95 96 84 91 91 89 87 86 86 85 84 83 83 84 83 81 80 79 78 76 74 72 70 72 75 74 76 80 80 78 82 87 79 95 69 65 69 73 74 75 73
96 97 98 96 91 90 82 87 86 85 88 87 84 85 84 83 82 81 80 78 75 72 71 71 72 76 78 74 74 79 78 72 82 90 95 90 67 64 66 68 69 70 72
97 97 97 96 94 92 89 83 82 83 85 85 84 82 86 87 85 81 80 77 71 70 70 72 75 72 68 77 74 74 68 71 78 88 96 75 62 61 64 66 67 67 66
89 92 88 93 98 92 75 90 87 78 86 86 84 83 82 83 84 78 82 77 76 73 72 73 74 69 65 64 65 63 62 68 78 83 90 74 59 57 60 63 64 65 64
89 94 91 89 98 92 84 93 92 86 85 82 80 79 80 79 84 82 81 79 80 74 65 63 62 63 62 61 64 61 58 63 69 77 75 68 58 49 55 58 62 62 60
90 90 85 96 95 92 87 90 89 80 82 80 77 78 92 96 92 84 84 87 77 77 71 69 68 61 60 57 56 57 58 57 58 69 77 75 66 52 47 55 58 57 56
91 83 87 96 96 87 83 86 86 89 92 97 97 91 91 88 92 87 84 80 78 73 71 70 65 64 64 62 61 58 54 52 52 58 68 62 73 62 48 52 55 52 53
91 91 91 93 93 84 88 90 97 98 98 97 97 94 86 92 93 87 82 79 76 72 70 71 71 73 72 66 59 60 55 58 52 55 59 64 68 71 61 52 50 49 48
85 87 94 94 86 89 93 96 98 98 98 98 98 94 92 93 90 86 84 80 79 73 75 75 76 75 75 63 56 57 59 59 52 52 56 62 91 81 69 53 45 46 43
82 92 92 79 90 96 96 97 98 98 98 98 98 97 94 88 88 84 78 80 82 80 79 80 76 75 79 67 62 64 68 59 56 52 51 54 68 84 75 61 49 47 45
88 89 86 92 95 95 95 97 96 95 97 98 97 97 93 87 82 78 79 84 80 78 78 71 76 75 73 70 61 65 73 66 61 46 48 52 62 71 62 52 54 53 42
91 89 93 91 95 92 96 97 98 97 97 96 95 90 78 83 78 78 82 81 76 73 73 72 66 74 78 79 56 57 66 66 65 64 55 46 52 54 55 53 61 56 56
88 93 94 94 96 90 95 97 98 97 97 95 90 72 73 79 76 77 79 76 75 70 72 69 74 72 78 77 70 70 71 69 65 63 58 54 50 50 49 51 57 58 56
83 89 93 91 95 85 89 97 96 97 95 90 82 74 72 74 74 73 74 74 72 73 73 76 75 79 85 77 75 82 77 71 69 63 61 54 53 54 50 50 51 51 57
82 87 89 91 92 84 88 96 95 84 82 78 78 77 73 72 69 72 74 77 77 77 78 81 81 78 77 76 76 73 82 84 84 71 62 57 54 59 59 56 52 52 54
79 83 86 89 91 85 90 92 90 90 84 78 79 77 76 71 67 60 62 67 71 74 73 76 76 85 86 83 83 73 76 77 79 80 68 61 60 52 60 65 61 56 56
83 93 93 94 91 86 87 91 95 90 80 83 82 80 59 65 62 58 62 65 67 76 76 77 83 86 91 87 86 89 86 84 79 81 81 67 65 64 64 67 65 66 59
95 96 97 96 94 94 92 95 94 87 82 78 80 66 66 68 64 64 58 64 64 68 67 79 83 82 86 89 91 91 88 85 79 73 77 80 78 71 68 67 65 64 66